Terug naar catalogus

ATLAS 5 CENTAUR R/B

ActiefLEO
NORAD 39475·ROCKET BODY·🇺🇸 United States

Gelanceerd Dec 6, 2013 vanaf Vandenberg Space Force Base

Loading…

Volgende Passages (komende 24 uur)

TLE

VersSource: Space-Track

Epoch: Sep 14, 2026, 11:09 UTC

1 39475U 13072P   26257.46513865  .00003097  00000-0  20497-3 0  9995
2 39475 120.4316  95.8512 0180414   3.0068 357.2047 14.98690843127956

Volg ATLAS 5 CENTAUR R/B in realtime met AllMySat

Download on the App Store